Jefferson, NC

4:03 PM EDT on June 23, 2017 (GMT -0400)
Ashe County

Weather History for KGEV - March, 2014

Change the Weather History Date:

Friday, March 14, 2014

  Actual Average Record
Temperature  
Mean Temperature 40 °F -  
Max Temperature 53 °F 54 °F 78 °F (1973)
Min Temperature 28 °F 30 °F 10 °F (1993)
Degree Days  
Heating Degree Days 24    
Moisture  
Dew Point 6 °F    
Average Humidity 24    
Maximum Humidity 33    
Minimum Humidity 18    
Precipitation  
Precipitation 0.00 in - - ()
Sea Level Pressure  
Sea Level Pressure 30.11 in    
Wind  
Wind Speed 6 mph (South)    
Max Wind Speed 14 mph    
Max Gust Speed 22 mph    
Visibility 10 miles    
Events      
Averages and records for this station are not official NWS values.
T = Trace of Precipitation, MM = Missing Value Source: NWS Daily Summary

Daily Weather History Graph

Daily Weather History Graph

Search for Another Location

Airport or City:

Trip Planner

Search our weather history database for the weather conditions in past years. The results will help you decide how hot, cold, wet, or windy it might be!

Date:

Astronomy

Mar. 14, 2014 Rise Set
Actual Time 7:37 AM EDT 7:32 PM EDT
Civil Twilight 7:12 AM EDT 7:57 PM EDT
Nautical Twilight 6:42 AM EDT 8:27 PM EDT
Astronomical Twilight 6:12 AM EDT 8:58 PM EDT
Moon 5:54 PM EDT (3/14) 6:14 AM EDT (3/14)
Length of Visible Light 12h 45m
Length of Day
11h 54m
Waxing Gibbous, 96% of the Moon is Illuminated
Mar 14
Waxing Gibbous
Mar 16
Full
Mar 23
Last Quarter
Mar 30
New
Apr 7
First Quarter

Hourly Weather History & Observations

Time (EDT) Temp. Windchill Dew Point Humidity Pressure Visibility Wind Dir Wind Speed Gust Speed Precip Events Conditions
12:15 AM 29.7 °F 19.1 °F -1.3 °F 26% 30.12 in 10.0 mi West 13.8 mph - N/A   Clear
12:35 AM 29.5 °F 19.9 °F -0.9 °F 27% 30.12 in 10.0 mi West 11.5 mph - N/A   Clear
12:55 AM 29.7 °F 21.3 °F -0.6 °F 27% 30.12 in 10.0 mi West 9.2 mph - N/A   Clear
1:15 AM 29.7 °F 20.1 °F -1.1 °F 27% 30.11 in 10.0 mi West 11.5 mph - N/A   Clear
1:35 AM 29.3 °F 22.3 °F -1.3 °F 27% 30.12 in 10.0 mi West 6.9 mph - N/A   Clear
1:55 AM 29.7 °F 23.7 °F -2.4 °F 25% 30.12 in 10.0 mi WNW 5.8 mph - N/A   Clear
2:15 AM 30.0 °F 20.5 °F -1.7 °F 26% 30.12 in 10.0 mi West 11.5 mph - N/A   Clear
2:35 AM 30.6 °F 23.1 °F -2.0 °F 25% 30.13 in 10.0 mi West 8.1 mph - N/A   Clear
2:55 AM 30.9 °F 22.8 °F -1.5 °F 25% 30.12 in 10.0 mi West 9.2 mph - N/A   Clear
3:15 AM 29.5 °F - -0.9 °F 27% 30.13 in 10.0 mi Calm Calm - N/A   Clear
3:35 AM 28.4 °F 24.6 °F 0.3 °F 30% 30.13 in 10.0 mi NNE 3.5 mph - N/A   Clear
3:55 AM 29.1 °F - 0.1 °F 29% 30.13 in 10.0 mi Calm Calm - N/A   Clear
4:15 AM 30.9 °F - -2.7 °F 24% 30.12 in 10.0 mi Calm Calm - N/A   Clear
4:35 AM 30.9 °F 25.2 °F -2.4 °F 24% 30.14 in 10.0 mi WSW 5.8 mph - N/A   Clear
4:55 AM 32.2 °F 28.9 °F -2.4 °F 23% 30.15 in 10.0 mi SE 3.5 mph - N/A   Clear
5:15 AM 31.8 °F 27.3 °F -1.3 °F 24% 30.14 in 10.0 mi East 4.6 mph - N/A   Clear
5:35 AM 32.9 °F 28.5 °F -2.4 °F 22% 30.15 in 10.0 mi NW 4.6 mph - N/A   Clear
5:55 AM 33.3 °F 25.1 °F -2.7 °F 21% 30.15 in 10.0 mi West 10.4 mph 16.1 mph N/A   Clear
6:15 AM 33.4 °F - -2.6 °F 21% 30.15 in 10.0 mi Calm Calm - N/A   Clear
6:35 AM 32.7 °F 28.3 °F -3.5 °F 21% 30.15 in 10.0 mi West 4.6 mph - N/A   Clear
6:55 AM 32.0 °F - -2.0 °F 23% 30.15 in 10.0 mi Calm Calm - N/A   Clear
7:15 AM 29.7 °F - 0.7 °F 29% 30.16 in 10.0 mi Calm Calm - N/A   Clear
7:35 AM 30.9 °F - 0.1 °F 27% 30.16 in 10.0 mi Calm Calm - N/A   Clear
7:55 AM 30.6 °F - 0.3 °F 27% 30.17 in 10.0 mi Calm Calm - N/A   Clear
8:15 AM 29.1 °F - 2.5 °F 32% 30.17 in 10.0 mi Calm Calm - N/A   Clear
8:35 AM 30.6 °F - 4.3 °F 33% 30.17 in 10.0 mi Calm Calm - N/A   Clear
8:55 AM 32.0 °F - 3.2 °F 30% 30.18 in 10.0 mi Calm Calm - N/A   Clear
9:15 AM 32.5 °F - 3.9 °F 30% 30.18 in 10.0 mi Calm Calm - N/A   Clear
9:35 AM 33.1 °F - 5.4 °F 31% 30.18 in 10.0 mi Calm Calm - N/A   Clear
9:55 AM 35.8 °F - 6.6 °F 30% 30.19 in 10.0 mi Calm Calm - N/A   Clear
10:15 AM 38.3 °F - 4.8 °F 25% 30.19 in 10.0 mi Calm Calm - N/A   Clear
10:35 AM 40.8 °F 38.8 °F 6.6 °F 24% 30.19 in 10.0 mi ENE 3.5 mph - N/A   Clear
10:55 AM 42.8 °F - 6.6 °F 23% 30.19 in 10.0 mi Calm Calm - N/A   Clear
11:15 AM 43.9 °F - 3.9 °F 19% 30.19 in 10.0 mi Calm Calm - N/A   Clear
11:35 AM 46.2 °F - 7.0 °F 20% 30.18 in 10.0 mi Calm Calm - N/A   Clear
11:55 AM 48.7 °F - 8.8 °F 20% 30.17 in 10.0 mi SSW 5.8 mph - N/A   Clear
12:15 PM 50.5 °F - 10.2 °F 20% 30.16 in 10.0 mi SE 4.6 mph - N/A   Clear
12:35 PM 50.5 °F - 9.3 °F 19% 30.16 in 10.0 mi SE 9.2 mph - N/A   Clear
12:55 PM 51.3 °F - 10.4 °F 19% 30.15 in 10.0 mi SSE 5.8 mph - N/A   Clear
1:15 PM 51.6 °F - 8.8 °F 18% 30.15 in 10.0 mi SE 6.9 mph - N/A   Clear
1:35 PM 51.8 °F - 9.5 °F 18% 30.14 in 10.0 mi SE 9.2 mph 16.1 mph N/A   Clear
1:55 PM 52.7 °F - 10.2 °F 18% 30.13 in 10.0 mi SSE 6.9 mph - N/A   Clear
2:15 PM 52.3 °F - 10.6 °F 19% 30.11 in 10.0 mi SE 9.2 mph 16.1 mph N/A   Clear
2:35 PM 53.2 °F - 12.6 °F 20% 30.10 in 10.0 mi SSE 9.2 mph - N/A   Clear
2:55 PM 52.7 °F - 12.7 °F 20% 30.09 in 10.0 mi SSE 8.1 mph 21.9 mph N/A   Clear
3:15 PM 52.7 °F - 11.7 °F 19% 30.08 in 10.0 mi South 5.8 mph - N/A   Clear
3:35 PM 53.4 °F - 12.6 °F 20% 30.08 in 10.0 mi SSE 6.9 mph 18.4 mph N/A   Clear
3:55 PM 52.7 °F - 12.6 °F 20% 30.06 in 10.0 mi South 8.1 mph 20.7 mph N/A   Clear
4:15 PM 51.8 °F - 11.7 °F 20% 30.05 in 10.0 mi SSE 9.2 mph 19.6 mph N/A   Clear
4:35 PM 53.6 °F - 12.2 °F 19% 30.05 in 10.0 mi SSE 9.2 mph - N/A   Clear
4:55 PM 51.3 °F - 12.4 °F 21% 30.04 in 10.0 mi South 8.1 mph - N/A   Clear
5:15 PM 52.2 °F - 11.7 °F 20% 30.03 in 10.0 mi South 9.2 mph 19.6 mph N/A   Clear
5:35 PM 51.3 °F - 10.9 °F 20% 30.03 in 10.0 mi SSE 6.9 mph 17.3 mph N/A   Clear
5:55 PM 50.4 °F - 10.8 °F 20% 30.03 in 10.0 mi South 8.1 mph 16.1 mph N/A   Clear
6:15 PM 50.0 °F - 10.6 °F 21% 30.03 in 10.0 mi South 5.8 mph - N/A   Clear
6:35 PM 48.2 °F - 11.7 °F 23% 30.03 in 10.0 mi South 6.9 mph - N/A   Clear
6:55 PM 48.2 °F - 10.6 °F 22% 30.04 in 10.0 mi SSE 5.8 mph - N/A   Clear
7:15 PM 46.6 °F - 10.8 °F 23% 30.04 in 10.0 mi South 4.6 mph - N/A   Clear
7:35 PM 46.0 °F - 10.9 °F 24% 30.04 in 10.0 mi Calm Calm - N/A   Clear
7:55 PM 45.1 °F 43.7 °F 11.7 °F 26% 30.04 in 10.0 mi SE 3.5 mph - N/A   Clear
8:15 PM 45.1 °F 43.7 °F 11.8 °F 26% 30.03 in 10.0 mi South 3.5 mph - N/A   Clear
8:35 PM 45.5 °F 43.2 °F 11.8 °F 26% 30.04 in 10.0 mi SSE 4.6 mph - N/A   Clear
8:55 PM 45.1 °F 43.7 °F 11.8 °F 26% 30.04 in 10.0 mi South 3.5 mph - N/A   Clear
9:15 PM 44.2 °F 42.7 °F 12.4 °F 28% 30.04 in 10.0 mi SE 3.5 mph - N/A   Clear
9:35 PM 44.1 °F - 12.2 °F 28% 30.04 in 10.0 mi Calm Calm - N/A   Clear
9:55 PM 43.0 °F 41.3 °F 13.1 °F 30% 30.04 in 10.0 mi SSE 3.5 mph - N/A   Clear
10:15 PM 43.2 °F 41.5 °F 13.3 °F 30% 30.04 in 10.0 mi South 3.5 mph - N/A   Clear
10:35 PM 43.3 °F 40.7 °F 13.5 °F 30% 30.04 in 10.0 mi South 4.6 mph - N/A   Clear
10:55 PM 42.8 °F 40.1 °F 14.2 °F 31% 30.03 in 10.0 mi South 4.6 mph - N/A   Clear
11:15 PM 42.6 °F 39.9 °F 14.2 °F 32% 30.03 in 10.0 mi SSE 4.6 mph - N/A   Clear
11:35 PM 43.5 °F - 14.5 °F 31% 30.02 in 10.0 mi Calm Calm - N/A   Mostly Cloudy
11:55 PM 43.0 °F 40.3 °F 15.6 °F 33% 30.01 in 10.0 mi South 4.6 mph - N/A   Overcast